Content
SEND FEEDBACK

Daily
Averages
Monthly
Summary
Canada

MONTREAL, QUEBEC


Home > North America > Canada > Quebec
Elevation: 35 meters     Latitude: 45 28N     Longitude: 073 45W

WEATHER
 
SELECT A DAY
Number of Records: 201,385;   Date Range: 1/1/95 - 10/19/14
 
SHARE

PRINT THIS DATA

[ ← Previous Day ]
WEATHER ALMANAC - 9 MAY, 2013
[ Next Day → ]
[ °F ]   °C
Weather ElementAverageHighLow
Temperature19.7 °C24 °C (3:00 pm)16 °C (6:00 am)
Dewpoint13.2 °C16 °C (9:00 am)9 °C (4:00 pm)
Humidity68.2 %94 % (6:00 am)36 % (2:00 pm)
Barometer1012.5 hPa1015.6 hPa (1:00 am)1009.8 hPa (6:00 pm)
Wind Speed11.7 km/h16.7 km/h (5:00 pm)
Weather ElementAverage
Visibility35.9 km
Wind DirectionSSW (190.4 °)

Weather ElementTotal
Precipitation---
Cooling Degree Days1.7 (Base 18.3)
Growing Degree Days10 (Base 10)
Averaged from 28 records on 9 May, 2013
WEATHER CONDITIONS BREAKOUT
WIND DIRECTION BREAKOUT
WEATHER BY HOUR - 9 MAY, 2013
[ °F ]   °C
Local TimeTemperatureDewpointHumidityBarometerVisibilityWind DirectionWind SpeedGust SpeedPrecipitationEventsConditions
1:00 AM17 °C15 °C88 %1015.6 hPa24.1 kmSSE (160°)13 km/hRainLight Rain
1:40 AM17 °C15 °C88 %1014.9 hPa24.1 kmSE (130°)13 km/hMostly Cloudy
1:51 AM17 °C15 °C88 %1014.6 hPa24.1 kmSE (130°)14.8 km/hRainLight Rain Showers
2:00 AM17.2 °C15 °C84 %1014.6 hPa24.1 kmSE (130°)14.8 km/hRainLight Rain Showers
2:00 AM17 °C15 °C88 %1014.6 hPa24.1 kmESE (120°)13 km/hOvercast
3:00 AM17 °C15 °C88 %1014.2 hPa24.1 kmESE (120°)14.8 km/hOvercast
4:00 AM17 °C15 °C88 %1013.9 hPa24.1 kmSE (130°)14.8 km/hMostly Cloudy
5:00 AM17 °C15 °C88 %1013.5 hPa19.3 kmSSE (150°)13 km/hRainLight Rain Showers
6:00 AM16 °C15 °C94 %1013.5 hPa48.3 kmSE (140°)9.3 km/hMostly Cloudy
7:00 AM17 °C15 °C88 %1013.5 hPa48.3 kmSE (140°)13 km/hMostly Cloudy
8:00 AM16.7 °C15 °C87 %1013.9 hPa45.1 kmSSE (160°)13 km/hPartly Cloudy
8:00 AM17 °C15 °C88 %1013.9 hPa48.3 kmSSE (160°)13 km/hOvercast
9:00 AM18 °C16 °C88 %1013.5 hPa48.3 kmSouth (190°)5.6 km/hOvercast
10:00 AM20 °C16 °C78 %1013.2 hPa48.3 kmSSW (200°)5.6 km/hScattered Clouds
11:00 AM21 °C14 °C64 %1012.9 hPa48.3 kmCalmMostly Cloudy
12:00 PM23 °C11 °C47 %1012.2 hPa48.3 kmSW (220°)9.3 km/hMostly Cloudy
1:00 PM23 °C13 °C53 %1011.9 hPa24.1 kmSSE (160°)13 km/hMostly Cloudy
2:00 PM22.8 °C11.1 °C36 %1011.2 hPa45.1 kmSW (220°)13 km/hOvercast
2:00 PM23 °C11 °C47 %1011.2 hPa48.3 kmSW (220°)9.3 km/hOvercast
3:00 PM24 °C11 °C44 %1010.8 hPa48.3 kmSSW (210°)11.1 km/hMostly Cloudy
4:00 PM24 °C9 °C38 %1010.2 hPa48.3 kmSSW (200°)14.8 km/hMostly Cloudy
5:00 PM23 °C10 °C44 %1010.2 hPa48.3 kmSW (230°)16.7 km/hMostly Cloudy
6:00 PM23 °C10 °C44 %1009.8 hPa48.3 kmSSW (210°)14.8 km/hMostly Cloudy
7:00 PM23 °C10 °C44 %1010.2 hPa24.1 kmWSW (250°)11.1 km/hMostly Cloudy
8:00 PM22 °C11 °C50 %1010.8 hPa24.1 kmNW (320°)14.8 km/hMostly Cloudy
9:00 PM20 °C11 °C56 %1011.2 hPa24.1 kmNorth (350°)11.1 km/hMostly Cloudy
10:00 PM20 °C12 °C60 %1011.9 hPa24.1 kmNNW (340°)9.3 km/hMostly Cloudy
11:00 PM20 °C12 °C60 %1011.9 hPa24.1 kmNNW (340°)11.1 km/hOvercast
Hourly data recorded from CYUL, located 0 kilometers away from Montreal, Quebec







STORIES FROM OUR PARTNERS